When you browse on this site, cookies collect data to enhance your experience and personalize the content and advertising you see.
Visit our Privacy Policy to learn more. By continuing to use the site, you agree to this use of cookies and data.
  • In Slovakia
  • List of Countries
  • For 7 days
  • Water Temperature
  • Weather Map
  • Weather Widgets
  • user-avatar
    Login

    Hourly Weather Ganevichi

    Today, 19 August, Monday

    Time Temperature Precipitation Wind Pressure Humidity
    00:00 +17°C° 0 mm 2 mps 741 mmHg 90%
    01:00 +16°C° 0 mm 2 mps 741 mmHg 90%
    02:00 +16°C° 0 mm 2 mps 741 mmHg 90%
    03:00 +16°C° 0 mm 3 mps 741 mmHg 91%
    04:00 +16°C° 0 mm 3 mps 741 mmHg 92%
    05:00 +16°C° 0 mm 3 mps 741 mmHg 93%
    06:00 +17°C° 0 mm 3 mps 741 mmHg 90%
    07:00 +19°C° 0 mm 3 mps 742 mmHg 87%
    08:00 +20°C° 0 mm 4 mps 742 mmHg 84%
    09:00 +22°C° 0 mm 4 mps 742 mmHg 78%
    10:00 +25°C° 0 mm 4 mps 742 mmHg 73%
    11:00 +27°C° 0 mm 4 mps 742 mmHg 67%
    12:00 +27°C° 0.1 mm 4 mps 742 mmHg 66%
    13:00 +28°C° 0.1 mm 4 mps 742 mmHg 65%
    14:00 +29°C° 0.1 mm 4 mps 742 mmHg 64%
    15:00 +28°C° 0.9 mm 4 mps 742 mmHg 68%
    16:00 +28°C° 0.9 mm 3 mps 742 mmHg 71%
    17:00 +28°C° 0.9 mm 2 mps 743 mmHg 75%
    18:00 +26°C° 0.1 mm 2 mps 743 mmHg 79%
    19:00 +25°C° 0.1 mm 2 mps 743 mmHg 84%
    20:00 +23°C° 0.1 mm 2 mps 743 mmHg 88%
    21:00 +21°C° 1.4 mm 2 mps 743 mmHg 90%
    22:00 +21°C° 1.4 mm 3 mps 743 mmHg 92%
    23:00 +20°C° 1.4 mm 3 mps 743 mmHg 95%

    Tomorrow, 20 August, Tuesday

    Time Temperature Precipitation Wind Pressure Humidity
    00:00 +20°C° 1.1 mm 2 mps 743 mmHg 95%
    01:00 +20°C° 1.1 mm 2 mps 744 mmHg 96%
    02:00 +20°C° 1.1 mm 2 mps 744 mmHg 97%
    03:00 +19°C° 0.4 mm 2 mps 744 mmHg 97%
    04:00 +19°C° 0.4 mm 2 mps 744 mmHg 97%
    05:00 +20°C° 0.4 mm 1 mps 744 mmHg 97%
    06:00 +20°C° 0.8 mm 2 mps 745 mmHg 96%
    07:00 +20°C° 0.8 mm 2 mps 745 mmHg 95%
    08:00 +21°C° 0.8 mm 2 mps 745 mmHg 94%
    09:00 +23°C° 0 mm 2 mps 745 mmHg 90%
    10:00 +23°C° 0 mm 2 mps 746 mmHg 86%
    11:00 +24°C° 0 mm 2 mps 746 mmHg 82%
    12:00 +25°C° 0.1 mm 3 mps 746 mmHg 79%
    13:00 +26°C° 0.1 mm 3 mps 746 mmHg 75%
    14:00 +26°C° 0.1 mm 3 mps 747 mmHg 72%
    15:00 +26°C° 0.1 mm 3 mps 747 mmHg 74%
    16:00 +25°C° 0.1 mm 3 mps 747 mmHg 75%
    17:00 +25°C° 0.1 mm 3 mps 747 mmHg 76%
    18:00 +24°C° 0 mm 3 mps 747 mmHg 81%
    19:00 +21°C° 0 mm 3 mps 747 mmHg 86%
    20:00 +20°C° 0 mm 2 mps 747 mmHg 91%
    21:00 +19°C° 0 mm 2 mps 747 mmHg 92%
    22:00 +19°C° 0 mm 2 mps 747 mmHg 93%
    23:00 +18°C° 0 mm 2 mps 747 mmHg 95%

    Day after tomorrow, 21 August, Wednesday

    Time Temperature Precipitation Wind Pressure Humidity
    00:00 +18°C° 0 mm 2 mps 747 mmHg 95%
    01:00 +18°C° 0 mm 2 mps 747 mmHg 96%
    02:00 +17°C° 0 mm 2 mps 747 mmHg 96%
    03:00 +17°C° 0 mm 2 mps 747 mmHg 96%
    04:00 +17°C° 0 mm 2 mps 747 mmHg 97%
    05:00 +17°C° 0 mm 2 mps 746 mmHg 97%
    06:00 +18°C° 0 mm 2 mps 746 mmHg 95%
    07:00 +19°C° 0 mm 2 mps 746 mmHg 92%
    08:00 +20°C° 0 mm 2 mps 746 mmHg 90%
    09:00 +23°C° 0 mm 2 mps 746 mmHg 86%
    10:00 +24°C° 0 mm 2 mps 746 mmHg 81%
    11:00 +26°C° 0 mm 2 mps 746 mmHg 77%
    12:00 +26°C° 0.4 mm 2 mps 746 mmHg 77%
    13:00 +26°C° 0.4 mm 2 mps 745 mmHg 77%
    14:00 +27°C° 0.4 mm 2 mps 745 mmHg 76%
    15:00 +26°C° 1.4 mm 2 mps 745 mmHg 79%
    16:00 +25°C° 1.4 mm 1 mps 745 mmHg 83%
    17:00 +25°C° 1.4 mm 1 mps 745 mmHg 86%
    18:00 +24°C° 1 mm 1 mps 745 mmHg 88%
    19:00 +23°C° 1 mm 2 mps 745 mmHg 90%
    20:00 +21°C° 1 mm 2 mps 745 mmHg 92%
    21:00 +20°C° 0.1 mm 3 mps 746 mmHg 94%
    22:00 +20°C° 0.1 mm 3 mps 746 mmHg 95%
    23:00 +19°C° 0.1 mm 4 mps 746 mmHg 97%

    22 August, Thursday

    Time Temperature Precipitation Wind Pressure Humidity
    00:00 +19°C° 0 mm 4 mps 746 mmHg 96%
    01:00 +18°C° 0 mm 4 mps 746 mmHg 96%
    02:00 +18°C° 0 mm 4 mps 746 mmHg 95%
    03:00 +17°C° 0 mm 4 mps 746 mmHg 94%
    04:00 +17°C° 0 mm 4 mps 746 mmHg 93%
    05:00 +15°C° 0 mm 4 mps 746 mmHg 92%
    06:00 +15°C° 0 mm 4 mps 747 mmHg 92%
    07:00 +15°C° 0 mm 4 mps 747 mmHg 91%
    08:00 +15°C° 0 mm 4 mps 747 mmHg 91%
    09:00 +17°C° 0 mm 4 mps 747 mmHg 87%
    10:00 +18°C° 0 mm 4 mps 748 mmHg 84%
    11:00 +19°C° 0 mm 4 mps 748 mmHg 80%
    12:00 +20°C° 0 mm 4 mps 748 mmHg 77%
    13:00 +21°C° 0 mm 4 mps 748 mmHg 74%
    14:00 +21°C° 0 mm 4 mps 748 mmHg 72%
    15:00 +21°C° 0 mm 4 mps 748 mmHg 73%
    16:00 +21°C° 0 mm 4 mps 748 mmHg 75%
    17:00 +20°C° 0 mm 3 mps 748 mmHg 76%
    18:00 +19°C° 0 mm 3 mps 748 mmHg 81%
    19:00 +18°C° 0 mm 2 mps 748 mmHg 85%
    20:00 +17°C° 0 mm 2 mps 749 mmHg 89%
    21:00 +16°C° 0 mm 2 mps 749 mmHg 90%
    22:00 +15°C° 0 mm 2 mps 749 mmHg 91%
    23:00 +15°C° 0 mm 2 mps 749 mmHg 92%

    23 August, Friday

    Time Temperature Precipitation Wind Pressure Humidity
    00:00 +14°C° 0 mm 2 mps 749 mmHg 93%
    01:00 +14°C° 0 mm 2 mps 749 mmHg 93%
    02:00 +14°C° 0 mm 2 mps 749 mmHg 93%
    03:00 +13°C° 0 mm 2 mps 749 mmHg 94%
    04:00 +13°C° 0 mm 2 mps 749 mmHg 94%
    05:00 +13°C° 0 mm 2 mps 749 mmHg 95%
    06:00 +14°C° 0 mm 2 mps 749 mmHg 91%
    07:00 +16°C° 0 mm 2 mps 749 mmHg 87%
    08:00 +17°C° 0 mm 2 mps 750 mmHg 83%
    09:00 +18°C° 0 mm 2 mps 750 mmHg 77%
    10:00 +20°C° 0 mm 2 mps 750 mmHg 72%
    11:00 +21°C° 0 mm 2 mps 750 mmHg 66%
    12:00 +23°C° 0 mm 2 mps 750 mmHg 63%
    13:00 +23°C° 0 mm 2 mps 750 mmHg 61%
    14:00 +24°C° 0 mm 2 mps 750 mmHg 58%
    15:00 +24°C° 0 mm 2 mps 750 mmHg 60%
    16:00 +22°C° 0 mm 3 mps 750 mmHg 63%
    17:00 +22°C° 0 mm 3 mps 749 mmHg 65%
    18:00 +20°C° 0 mm 2 mps 750 mmHg 69%
    19:00 +18°C° 0 mm 2 mps 750 mmHg 73%
    20:00 +16°C° 0 mm 2 mps 750 mmHg 77%
    21:00 +16°C° 0 mm 2 mps 750 mmHg 77%
    22:00 +15°C° 0 mm 2 mps 750 mmHg 77%
    23:00 +14°C° 0 mm 2 mps 750 mmHg 76%

    24 August, Saturday

    Time Temperature Precipitation Wind Pressure Humidity
    00:00 +14°C° 0 mm 2 mps 750 mmHg 78%
    01:00 +13°C° 0 mm 2 mps 751 mmHg 80%
    02:00 +13°C° 0 mm 1 mps 751 mmHg 82%
    03:00 +13°C° 0 mm 1 mps 751 mmHg 84%
    04:00 +12°C° 0 mm 1 mps 750 mmHg 86%
    05:00 +12°C° 0 mm 1 mps 750 mmHg 88%
    06:00 +14°C° 0 mm 1 mps 751 mmHg 83%
    07:00 +15°C° 0 mm 1 mps 751 mmHg 79%
    08:00 +17°C° 0 mm 2 mps 751 mmHg 74%
    09:00 +18°C° 0 mm 2 mps 751 mmHg 69%
    10:00 +20°C° 0 mm 2 mps 751 mmHg 64%
    11:00 +21°C° 0 mm 2 mps 751 mmHg 58%
    12:00 +23°C° 0 mm 2 mps 751 mmHg 56%
    13:00 +23°C° 0 mm 2 mps 751 mmHg 55%
    14:00 +24°C° 0 mm 2 mps 750 mmHg 53%
    15:00 +23°C° 0 mm 2 mps 750 mmHg 56%
    16:00 +23°C° 0 mm 2 mps 750 mmHg 59%
    17:00 +23°C° 0 mm 2 mps 750 mmHg 62%
    18:00 +20°C° 0 mm 2 mps 750 mmHg 67%
    19:00 +18°C° 0 mm 2 mps 750 mmHg 72%
    20:00 +16°C° 0 mm 2 mps 749 mmHg 77%
    21:00 +16°C° 0 mm 2 mps 749 mmHg 79%
    22:00 +15°C° 0 mm 2 mps 749 mmHg 80%
    23:00 +14°C° 0 mm 3 mps 749 mmHg 82%
    Show more